�������l�o���
Date,Time,MP-1(��Sv/h),MP-2(��Sv/h),MP-3(��Sv/h),MP-4(��Sv/h),MP-5(��Sv/h),MP-6(��Sv/h),MP-7(��Sv/h),MP-8(��Sv/h),����,����(m/s),���J
2020/12/31,00:00,0.654,0.929,0.595,1.174,0.826,0.374,0.668,0.627,�k�k��,8.4,��
2020/12/31,00:10,0.655,0.928,0.597,1.177,0.825,0.374,0.667,0.628,�k��,6.7,��
2020/12/31,00:20,0.653,0.931,0.597,1.176,0.827,0.375,0.668,0.628,�k��,6.2,��
2020/12/31,00:30,0.653,0.931,0.598,1.178,0.827,0.375,0.668,0.627,�k��,5.3,��
2020/12/31,00:40,0.654,0.931,0.597,1.178,0.827,0.373,0.667,0.629,�k�k��,3.8,��
2020/12/31,00:50,0.653,0.930,0.595,1.178,0.828,0.375,0.668,0.628,�k�k��,4.0,��
2020/12/31,01:00,0.654,0.931,0.595,1.179,0.825,0.374,0.668,0.630,�k�k��,4.9,��
2020/12/31,01:10,0.654,0.933,0.595,1.179,0.827,0.374,0.668,0.630,�k��,2.3,��
2020/12/31,01:20,0.655,0.929,0.596,1.179,0.827,0.375,0.667,0.628,�k�k��,2.2,��
2020/12/31,01:30,0.652,0.930,0.596,1.176,0.826,0.374,0.667,0.630,�k��,1.4,��
2020/12/31,01:40,0.656,0.931,0.596,1.178,0.827,0.374,0.667,0.628,�쐼,2.0,��
2020/12/31,01:50,0.654,0.927,0.595,1.178,0.827,0.373,0.668,0.629,���쐼,3.4,��
2020/12/31,02:00,0.653,0.929,0.595,1.178,0.828,0.374,0.668,0.629,���쐼,3.6,��
2020/12/31,02:10,0.655,0.928,0.595,1.175,0.827,0.375,0.667,0.627,���쐼,5.4,��
2020/12/31,02:20,0.656,0.928,0.596,1.175,0.827,0.374,0.666,0.629,��,4.1,��
2020/12/31,02:30,0.654,0.930,0.597,1.178,0.826,0.374,0.667,0.627,��,3.4,��
2020/12/31,02:40,0.652,0.928,0.597,1.175,0.827,0.374,0.666,0.628,���k��,5.2,��
2020/12/31,02:50,0.654,0.930,0.595,1.176,0.827,0.373,0.669,0.629,��,3.7,��
2020/12/31,03:00,0.655,0.929,0.595,1.178,0.828,0.376,0.667,0.627,��,5.3,��
2020/12/31,03:10,0.654,0.928,0.595,1.180,0.827,0.374,0.667,0.628,��,5.1,��
2020/12/31,03:20,0.654,0.928,0.596,1.176,0.825,0.373,0.667,0.629,�k��,4.9,��
2020/12/31,03:30,0.655,0.928,0.596,1.177,0.825,0.375,0.669,0.628,�k,3.7,��
2020/12/31,03:40,0.655,0.929,0.596,1.176,0.827,0.374,0.668,0.629,�k�k��,1.9,��
2020/12/31,03:50,0.653,0.930,0.597,1.178,0.825,0.373,0.665,0.629,���쐼,1.7,��
2020/12/31,04:00,0.654,0.927,0.595,1.177,0.824,0.372,0.665,0.627,���쐼,2.2,��
2020/12/31,04:10,0.654,0.929,0.595,1.179,0.826,0.374,0.666,0.629,��,2.0,��
2020/12/31,04:20,0.653,0.926,0.595,1.177,0.826,0.373,0.666,0.627,�k�k��,1.5,��
2020/12/31,04:30,0.655,0.928,0.593,1.177,0.825,0.372,0.666,0.628,�k�k��,2.6,��
2020/12/31,04:40,0.654,0.927,0.594,1.176,0.824,0.374,0.667,0.629,�k�k��,4.0,��
2020/12/31,04:50,0.652,0.926,0.595,1.178,0.823,0.372,0.667,0.628,�k,5.5,��
2020/12/31,05:00,0.653,0.928,0.595,1.176,0.826,0.372,0.667,0.626,�k,4.8,��
2020/12/31,05:10,0.656,0.928,0.595,1.177,0.824,0.373,0.667,0.629,�k,4.7,��
2020/12/31,05:20,0.654,0.928,0.594,1.177,0.824,0.373,0.667,0.629,�k,3.8,��
2020/12/31,05:30,0.654,0.927,0.595,1.177,0.826,0.372,0.667,0.628,�k�k��,2.8,��
2020/12/31,05:40,0.652,0.925,0.594,1.176,0.824,0.374,0.666,0.627,�k,4.0,��
2020/12/31,05:50,0.654,0.926,0.594,1.178,0.825,0.373,0.668,0.629,�k,4.7,��
2020/12/31,06:00,0.653,0.928,0.594,1.177,0.827,0.372,0.666,0.628,�k�k��,2.2,��
2020/12/31,06:10,0.652,0.926,0.594,1.179,0.826,0.371,0.667,0.628,�k�k��,1.5,��
2020/12/31,06:20,0.652,0.928,0.595,1.176,0.826,0.372,0.665,0.628,��,2.0,��
2020/12/31,06:30,0.654,0.927,0.595,1.177,0.826,0.373,0.667,0.628,�k��,3.2,��
2020/12/31,06:40,0.653,0.927,0.594,1.175,0.825,0.373,0.666,0.629,�k�k��,5.1,��
2020/12/31,06:50,0.654,0.926,0.593,1.179,0.825,0.372,0.667,0.627,�k�k��,5.9,��
2020/12/31,07:00,0.653,0.926,0.594,1.176,0.824,0.372,0.665,0.628,�k��,5.0,��
2020/12/31,07:10,0.652,0.926,0.595,1.176,0.824,0.371,0.666,0.627,�k��,5.3,��
2020/12/31,07:20,0.655,0.925,0.593,1.175,0.819,0.372,0.667,0.627,���k��,5.0,��
2020/12/31,07:30,0.651,0.925,0.593,1.177,0.823,0.372,0.666,0.628,���k��,5.1,��
2020/12/31,07:40,0.653,0.925,0.594,1.178,0.824,0.373,0.666,0.628,���k��,5.6,��
2020/12/31,07:50,0.651,0.927,0.594,1.175,0.823,0.372,0.667,0.629,�k��,4.9,��
2020/12/31,08:00,0.653,0.927,0.594,1.177,0.825,0.372,0.668,0.626,�k��,3.8,��
2020/12/31,08:10,0.651,0.927,0.594,1.178,0.826,0.372,0.667,0.629,���k��,4.9,��
2020/12/31,08:20,0.653,0.927,0.596,1.176,0.824,0.373,0.667,0.629,�k��,3.1,��
2020/12/31,08:30,0.655,0.928,0.595,1.178,0.829,0.372,0.667,0.629,�k�k��,3.8,��
2020/12/31,08:40,0.654,0.928,0.596,1.177,0.824,0.373,0.666,0.630,�k��,4.6,��
2020/12/31,08:50,0.654,0.927,0.595,1.178,0.825,0.374,0.668,0.627,�k,3.8,��
2020/12/31,09:00,0.655,0.927,0.596,1.179,0.825,0.372,0.667,0.627,�k,3.3,��
2020/12/31,09:10,0.654,0.929,0.593,1.177,0.824,0.372,0.668,0.630,�k�k��,3.1,��
2020/12/31,09:20,0.655,0.929,0.594,1.177,0.826,0.373,0.668,0.629,���k��,3.9,��
2020/12/31,09:30,0.652,0.930,0.596,1.178,0.826,0.373,0.668,0.630,�k��,4.7,��
2020/12/31,09:40,0.655,0.929,0.595,1.181,0.826,0.371,0.668,0.627,�k,4.7,��
2020/12/31,09:50,0.656,0.931,0.595,1.178,0.827,0.372,0.666,0.629,�k�k��,5.2,��
2020/12/31,10:00,0.655,0.931,0.594,1.179,0.825,0.373,0.667,0.629,�k,4.5,��
2020/12/31,10:10,0.656,0.930,0.596,1.177,0.828,0.375,0.667,0.629,�k��,3.8,��
2020/12/31,10:20,0.657,0.931,0.596,1.179,0.826,0.373,0.666,0.629,���k��,5.0,��
2020/12/31,10:30,0.656,0.933,0.596,1.178,0.828,0.373,0.667,0.627,�k�k��,3.5,��
2020/12/31,10:40,0.656,0.933,0.597,1.179,0.827,0.376,0.666,0.628,���k��,2.5,��
2020/12/31,10:50,0.657,0.933,0.598,1.179,0.830,0.374,0.666,0.628,�k��,3.4,��
2020/12/31,11:00,0.656,0.932,0.597,1.177,0.829,0.373,0.666,0.628,���쐼,3.7,��
2020/12/31,11:10,0.656,0.934,0.598,1.181,0.828,0.374,0.667,0.631,��,5.4,��
2020/12/31,11:20,0.657,0.934,0.597,1.178,0.831,0.373,0.668,0.630,���k��,3.0,��
2020/12/31,11:30,0.658,0.935,0.598,1.181,0.831,0.375,0.670,0.630,��,5.5,��
2020/12/31,11:40,0.657,0.936,0.597,1.180,0.831,0.374,0.670,0.630,��,8.6,��
2020/12/31,11:50,0.657,0.934,0.599,1.179,0.830,0.376,0.669,0.630,��,8.7,��
2020/12/31,12:00,0.658,0.933,0.597,1.181,0.832,0.375,0.669,0.630,��,9.5,��
2020/12/31,12:10,0.658,0.934,0.598,1.181,0.830,0.374,0.669,0.629,��,9.1,��
2020/12/31,12:20,0.657,0.935,0.598,1.179,0.830,0.376,0.670,0.630,���k��,10.0,��
2020/12/31,12:30,0.659,0.934,0.598,1.180,0.830,0.374,0.670,0.630,���쐼,8.8,��
2020/12/31,12:40,0.661,0.934,0.600,1.180,0.831,0.374,0.670,0.631,���k��,7.3,��
2020/12/31,12:50,0.660,0.937,0.599,1.181,0.832,0.376,0.670,0.631,���쐼,7.2,��
2020/12/31,13:00,0.660,0.938,0.601,1.181,0.833,0.376,0.669,0.630,��,7.8,��
2020/12/31,13:10,0.662,0.939,0.600,1.182,0.832,0.374,0.670,0.630,��,7.1,��
2020/12/31,13:20,0.660,0.937,0.601,1.181,0.832,0.374,0.670,0.630,��,8.8,��
2020/12/31,13:30,0.661,0.938,0.601,1.184,0.832,0.375,0.672,0.629,��,7.9,��
2020/12/31,13:40,0.659,0.938,0.600,1.182,0.832,0.375,0.669,0.631,��,7.6,��
2020/12/31,13:50,0.662,0.939,0.601,1.181,0.833,0.374,0.669,0.630,��,7.2,��
2020/12/31,14:00,0.662,0.939,0.601,1.185,0.832,0.375,0.670,0.631,��,7.9,��
2020/12/31,14:10,0.661,0.940,0.602,1.181,0.834,0.375,0.670,0.630,��,5.3,��
2020/12/31,14:20,0.661,0.939,0.601,1.182,0.835,0.375,0.671,0.630,�k�k��,5.2,��
2020/12/31,14:30,0.662,0.940,0.600,1.182,0.833,0.374,0.670,0.630,�k,6.2,��
2020/12/31,14:40,0.660,0.939,0.601,1.184,0.836,0.375,0.669,0.631,�k,4.8,��
2020/12/31,14:50,0.661,0.938,0.602,1.185,0.834,0.375,0.669,0.631,�k,4.3,��
2020/12/31,15:00,0.661,0.940,0.601,1.183,0.837,0.375,0.670,0.630,�k�k��,3.6,��
2020/12/31,15:10,0.661,0.939,0.600,1.185,0.835,0.376,0.668,0.631,�k,3.1,��
2020/12/31,15:20,0.659,0.938,0.602,1.186,0.836,0.375,0.669,0.630,�k,2.8,��
2020/12/31,15:30,0.659,0.941,0.603,1.188,0.834,0.376,0.670,0.631,�k,3.1,��
2020/12/31,15:40,0.661,0.941,0.601,1.183,0.836,0.376,0.669,0.631,�k,2.9,��
2020/12/31,15:50,0.661,0.940,0.602,1.184,0.835,0.374,0.670,0.631,�k,3.4,��
2020/12/31,16:00,0.659,0.941,0.602,1.185,0.835,0.375,0.669,0.631,�k,3.4,��
2020/12/31,16:10,0.661,0.941,0.602,1.183,0.836,0.375,0.669,0.630,�k,1.7,��
2020/12/31,16:20,0.659,0.937,0.602,1.185,0.834,0.375,0.668,0.630,�k,2.0,��
2020/12/31,16:30,0.659,0.940,0.602,1.184,0.836,0.375,0.670,0.629,���쐼,1.9,��
2020/12/31,16:40,0.658,0.941,0.601,1.183,0.835,0.375,0.670,0.630,�k�k��,1.7,��
2020/12/31,16:50,0.658,0.941,0.603,1.185,0.837,0.376,0.668,0.630,�k��,3.2,��
2020/12/31,17:00,0.660,0.942,0.601,1.185,0.835,0.374,0.667,0.630,���쐼,3.0,��
2020/12/31,17:10,0.659,0.940,0.601,1.183,0.836,0.375,0.669,0.630,���k��,1.5,��
2020/12/31,17:20,0.658,0.940,0.600,1.185,0.838,0.374,0.668,0.630,��,1.5,��
2020/12/31,17:30,0.658,0.940,0.600,1.182,0.837,0.377,0.671,0.631,���쐼,2.3,��
2020/12/31,17:40,0.660,0.939,0.599,1.183,0.836,0.375,0.667,0.629,��,2.9,��
2020/12/31,17:50,0.659,0.939,0.600,1.184,0.834,0.374,0.667,0.629,�k��,2.3,��
2020/12/31,18:00,0.658,0.939,0.601,1.185,0.836,0.375,0.669,0.628,�k��,2.6,��
2020/12/31,18:10,0.658,0.939,0.600,1.181,0.835,0.375,0.667,0.631,�k��,2.8,��
2020/12/31,18:20,0.659,0.940,0.600,1.183,0.837,0.375,0.667,0.628,�k��,4.0,��
2020/12/31,18:30,0.659,0.940,0.602,1.182,0.833,0.374,0.668,0.629,���k��,3.7,��
2020/12/31,18:40,0.658,0.941,0.599,1.186,0.834,0.375,0.669,0.629,�k��,4.3,��
2020/12/31,18:50,0.658,0.939,0.600,1.184,0.834,0.374,0.668,0.630,�k��,4.0,��
2020/12/31,19:00,0.658,0.938,0.599,1.184,0.834,0.373,0.667,0.629,�k��,4.7,��
2020/12/31,19:10,0.657,0.940,0.601,1.185,0.837,0.374,0.670,0.629,�k��,4.5,��
2020/12/31,19:20,0.657,0.940,0.600,1.183,0.837,0.374,0.667,0.630,�k��,5.4,��
2020/12/31,19:30,0.658,0.940,0.601,1.184,0.835,0.373,0.670,0.630,�k��,5.3,��
2020/12/31,19:40,0.658,0.938,0.600,1.183,0.836,0.374,0.670,0.628,���k��,4.9,��
2020/12/31,19:50,0.659,0.941,0.602,1.183,0.837,0.374,0.669,0.631,�k��,4.2,��
2020/12/31,20:00,0.661,0.937,0.600,1.184,0.836,0.374,0.667,0.629,�k��,4.2,��
2020/12/31,20:10,0.657,0.939,0.601,1.184,0.836,0.373,0.668,0.629,�k��,5.1,��
2020/12/31,20:20,0.658,0.940,0.600,1.182,0.836,0.374,0.668,0.630,�k��,4.5,��
2020/12/31,20:30,0.656,0.939,0.602,1.182,0.836,0.374,0.668,0.629,���k��,3.9,��
2020/12/31,20:40,0.657,0.939,0.599,1.182,0.835,0.374,0.666,0.629,��,4.2,��
2020/12/31,20:50,0.660,0.939,0.599,1.183,0.835,0.374,0.668,0.630,��,4.8,��
2020/12/31,21:00,0.657,0.940,0.601,1.183,0.834,0.375,0.667,0.630,��,6.4,��
2020/12/31,21:10,0.657,0.940,0.600,1.187,0.832,0.375,0.668,0.631,���k��,5.1,��
2020/12/31,21:20,0.658,0.938,0.601,1.184,0.834,0.374,0.669,0.629,���k��,6.0,��
2020/12/31,21:30,0.658,0.938,0.601,1.182,0.833,0.374,0.669,0.629,���k��,6.8,��
2020/12/31,21:40,0.658,0.939,0.599,1.185,0.834,0.374,0.668,0.631,���k��,6.1,��
2020/12/31,21:50,0.656,0.937,0.600,1.184,0.833,0.374,0.669,0.630,�k��,5.9,��
2020/12/31,22:00,0.659,0.936,0.600,1.185,0.833,0.373,0.668,0.628,�k��,7.0,��
2020/12/31,22:10,0.658,0.939,0.598,1.182,0.834,0.372,0.668,0.631,�k��,7.0,��
2020/12/31,22:20,0.658,0.939,0.598,1.183,0.834,0.371,0.670,0.630,�k��,7.5,��
2020/12/31,22:30,0.659,0.938,0.598,1.184,0.832,0.371,0.668,0.630,�k��,6.4,��
2020/12/31,22:40,0.657,0.937,0.599,1.183,0.833,0.372,0.668,0.631,�k��,6.9,��
2020/12/31,22:50,0.658,0.935,0.599,1.186,0.831,0.373,0.667,0.629,���k��,4.7,��
2020/12/31,23:00,0.657,0.935,0.599,1.182,0.833,0.373,0.667,0.630,���k��,2.0,��
2020/12/31,23:10,0.660,0.936,0.601,1.184,0.830,0.375,0.668,0.629,��쓌,0.9,��
2020/12/31,23:20,0.660,0.935,0.599,1.183,0.833,0.374,0.668,0.630,���k��,0.9,��
2020/12/31,23:30,0.660,0.938,0.598,1.185,0.832,0.375,0.670,0.629,��,3.2,��
2020/12/31,23:40,0.658,0.939,0.599,1.182,0.834,0.374,0.667,0.629,��,4.2,��
2020/12/31,23:50,0.658,0.938,0.601,1.185,0.834,0.373,0.668,0.630,��,5.6,��
